Time,TemperatureF,DewpointF,PressureIn,WindDirection,WindDirectionDegrees,WindSpeedMPH,WindSpeedGustMPH,Humidity,HourlyPrecipIn,Conditions,Clouds,dailyrainin,SoftwareType,DateUTC
2013-08-02 00:03:00,48.9,-99.9,29.90,SE,145,1.0,5.0,1,0.00,,,0.00,WeatherCatV1.21B27,2013-08-02 07:03:00,
2013-08-02 00:08:00,48.9,-99.9,29.89,ESE,115,0.0,2.0,1,0.00,,,0.00,WeatherCatV1.21B27,2013-08-02 07:08:00,
2013-08-02 00:13:00,48.9,-99.9,29.89,SSE,161,1.0,4.0,1,0.00,,,0.00,WeatherCatV1.21B27,2013-08-02 07:13:00,
2013-08-02 00:18:00,48.8,-99.9,29.90,South,183,1.0,6.0,1,0.00,,,0.00,WeatherCatV1.21B27,2013-08-02 07:18:00,
2013-08-02 00:23:00,48.7,-99.9,29.89,South,175,1.0,8.0,1,0.00,,,0.00,WeatherCatV1.21B27,2013-08-02 07:23:00,
2013-08-02 00:28:00,48.5,-99.9,29.90,SSE,148,1.0,1.0,1,0.00,,,0.00,WeatherCatV1.21B27,2013-08-02 07:28:00,
2013-08-02 00:33:00,48.3,-99.9,29.89,SSW,211,2.0,4.0,1,0.00,,,0.00,WeatherCatV1.21B27,2013-08-02 07:33:00,
2013-08-02 00:38:00,48.1,-99.9,29.89,SSE,168,0.0,0.0,1,0.00,,,0.00,WeatherCatV1.21B27,2013-08-02 07:38:00,
2013-08-02 00:43:00,48.1,-99.9,29.89,South,184,1.0,3.0,1,0.00,,,0.00,WeatherCatV1.21B27,2013-08-02 07:43:00,
2013-08-02 00:48:00,47.9,-99.9,29.89,SSE,156,0.0,0.0,1,0.00,,,0.00,WeatherCatV1.21B27,2013-08-02 07:48:00,
2013-08-02 00:53:00,47.9,-99.9,29.89,ESE,111,3.0,6.0,1,0.00,,,0.00,WeatherCatV1.21B27,2013-08-02 07:53:00,
2013-08-02 00:58:00,47.7,-99.9,29.88,SE,142,0.0,0.0,1,0.00,,,0.00,WeatherCatV1.21B27,2013-08-02 07:58:00,
2013-08-02 01:03:00,47.6,-99.9,29.88,SE,134,2.0,2.0,1,0.00,,,0.00,WeatherCatV1.21B27,2013-08-02 08:03:00,
2013-08-02 01:08:00,47.6,-99.9,29.88,East,98,3.0,4.0,1,0.00,,,0.00,WeatherCatV1.21B27,2013-08-02 08:08:00,
2013-08-02 01:13:00,48.0,-99.9,29.88,SE,129,1.0,6.0,1,0.00,,,0.00,WeatherCatV1.21B27,2013-08-02 08:13:00,
2013-08-02 01:18:00,48.2,-99.9,29.88,SSE,152,2.0,3.0,1,0.00,,,0.00,WeatherCatV1.21B27,2013-08-02 08:18:00,
2013-08-02 01:23:00,48.0,-99.9,29.87,SSE,163,0.0,3.0,1,0.00,,,0.00,WeatherCatV1.21B27,2013-08-02 08:23:00,
2013-08-02 01:28:00,48.2,-99.9,29.87,SE,128,0.0,5.0,1,0.00,,,0.00,WeatherCatV1.21B27,2013-08-02 08:28:00,
2013-08-02 01:33:00,48.1,-99.9,29.87,South,169,3.0,3.0,1,0.00,,,0.00,WeatherCatV1.21B27,2013-08-02 08:33:00,
2013-08-02 01:38:00,47.9,-99.9,29.87,SSE,163,1.0,2.0,1,0.00,,,0.00,WeatherCatV1.21B27,2013-08-02 08:38:00,
2013-08-02 01:43:00,48.1,-99.9,29.86,SSE,149,1.0,4.0,1,0.00,,,0.00,WeatherCatV1.21B27,2013-08-02 08:43:00,
2013-08-02 01:48:00,48.4,-99.9,29.87,SE,129,1.0,2.0,1,0.00,,,0.00,WeatherCatV1.21B27,2013-08-02 08:48:00,
2013-08-02 01:53:00,48.3,-99.9,29.87,SE,133,1.0,1.0,1,0.00,,,0.00,WeatherCatV1.21B27,2013-08-02 08:53:00,
2013-08-02 01:58:00,48.1,-99.9,29.87,SE,138,0.0,6.0,1,0.00,,,0.00,WeatherCatV1.21B27,2013-08-02 08:58:00,
2013-08-02 02:03:00,48.0,-99.9,29.87,SE,134,0.0,2.0,1,0.00,,,0.00,WeatherCatV1.21B27,2013-08-02 09:03:00,
2013-08-02 02:08:00,47.9,-99.9,29.87,SSE,150,0.0,4.0,1,0.00,,,0.00,WeatherCatV1.21B27,2013-08-02 09:08:00,
2013-08-02 02:13:00,47.7,-99.9,29.87,SSE,152,0.0,6.0,1,0.00,,,0.00,WeatherCatV1.21B27,2013-08-02 09:13:00,
2013-08-02 02:18:00,47.5,-99.9,29.87,SSE,159,0.0,0.0,1,0.00,,,0.00,WeatherCatV1.21B27,2013-08-02 09:18:00,
2013-08-02 02:23:00,47.4,-99.9,29.87,SSE,154,1.0,1.0,1,0.00,,,0.00,WeatherCatV1.21B27,2013-08-02 09:23:00,
2013-08-02 02:28:00,47.4,-99.9,29.87,ESE,123,0.0,0.0,1,0.00,,,0.00,WeatherCatV1.21B27,2013-08-02 09:28:00,
2013-08-02 02:33:00,47.3,-99.9,29.86,SE,143,1.0,1.0,1,0.00,,,0.00,WeatherCatV1.21B27,2013-08-02 09:33:00,
2013-08-02 02:38:00,47.2,-99.9,29.86,South,183,3.0,3.0,1,0.00,,,0.00,WeatherCatV1.21B27,2013-08-02 09:38:00,
2013-08-02 02:43:00,47.1,-99.9,29.86,South,176,0.0,1.0,1,0.00,,,0.00,WeatherCatV1.21B27,2013-08-02 09:43:00,
2013-08-02 02:48:00,46.7,-99.9,29.86,SE,130,0.0,0.0,1,0.00,,,0.00,WeatherCatV1.21B27,2013-08-02 09:48:00,
2013-08-02 02:58:00,46.5,-99.9,29.86,ESE,123,1.0,1.0,1,0.00,,,0.00,WeatherCatV1.21B27,2013-08-02 09:58:00,
2013-08-02 03:03:00,46.4,-99.9,29.86,SE,130,0.0,0.0,1,0.00,,,0.00,WeatherCatV1.21B27,2013-08-02 10:03:00,
2013-08-02 03:08:00,46.1,-99.9,29.86,SSE,165,0.0,0.0,1,0.00,,,0.00,WeatherCatV1.21B27,2013-08-02 10:08:00,
2013-08-02 03:13:00,46.1,-99.9,29.86,SSE,152,2.0,2.0,1,0.00,,,0.00,WeatherCatV1.21B27,2013-08-02 10:13:00,
2013-08-02 03:18:00,46.3,-99.9,29.86,SSE,158,2.0,4.0,1,0.00,,,0.00,WeatherCatV1.21B27,2013-08-02 10:18:00,
2013-08-02 03:23:00,46.4,-99.9,29.86,SSE,158,0.0,1.0,1,0.00,,,0.00,WeatherCatV1.21B27,2013-08-02 10:23:00,
2013-08-02 03:28:00,46.4,-99.9,29.86,South,180,2.0,6.0,1,0.00,,,0.00,WeatherCatV1.21B27,2013-08-02 10:28:00,
2013-08-02 03:33:00,46.4,-99.9,29.86,SSE,167,0.0,4.0,1,0.00,,,0.00,WeatherCatV1.21B27,2013-08-02 10:33:00,
2013-08-02 03:38:00,46.5,-99.9,29.85,SSW,203,1.0,4.0,1,0.00,,,0.00,WeatherCatV1.21B27,2013-08-02 10:38:00,
2013-08-02 03:43:00,46.5,-99.9,29.86,SSE,152,1.0,3.0,1,0.00,,,0.00,WeatherCatV1.21B27,2013-08-02 10:43:00,
2013-08-02 03:48:00,46.4,-99.9,29.85,ESE,116,1.0,2.0,1,0.00,,,0.00,WeatherCatV1.21B27,2013-08-02 10:48:00,
2013-08-02 03:53:00,46.4,-99.9,29.85,SE,134,0.0,3.0,1,0.00,,,0.00,WeatherCatV1.21B27,2013-08-02 10:53:00,
2013-08-02 03:58:00,46.4,-99.9,29.85,SE,127,2.0,2.0,1,0.00,,,0.00,WeatherCatV1.21B27,2013-08-02 10:58:00,
2013-08-02 04:03:00,46.4,-99.9,29.86,SSE,150,1.0,7.0,1,0.00,,,0.00,WeatherCatV1.21B27,2013-08-02 11:03:00,
2013-08-02 04:08:00,46.3,-99.9,29.85,ESE,103,5.0,5.0,1,0.00,,,0.00,WeatherCatV1.21B27,2013-08-02 11:08:00,
2013-08-02 04:13:00,46.4,-99.9,29.85,SE,138,1.0,1.0,1,0.00,,,0.00,WeatherCatV1.21B27,2013-08-02 11:13:00,
2013-08-02 04:18:00,46.4,-99.9,29.86,South,178,0.0,0.0,1,0.00,,,0.00,WeatherCatV1.21B27,2013-08-02 11:18:00,
2013-08-02 04:23:00,46.4,-99.9,29.85,SSE,167,1.0,4.0,1,0.00,,,0.00,WeatherCatV1.21B27,2013-08-02 11:23:00,
2013-08-02 04:28:00,46.5,-99.9,29.85,South,171,2.0,3.0,1,0.00,,,0.00,WeatherCatV1.21B27,2013-08-02 11:28:00,
2013-08-02 04:33:00,46.4,-99.9,29.86,ESE,112,0.0,3.0,1,0.00,,,0.00,WeatherCatV1.21B27,2013-08-02 11:33:00,
2013-08-02 04:38:00,46.2,-99.9,29.86,South,173,2.0,2.0,1,0.00,,,0.00,WeatherCatV1.21B27,2013-08-02 11:38:00,
2013-08-02 04:43:00,46.2,-99.9,29.85,SE,146,0.0,1.0,1,0.00,,,0.00,WeatherCatV1.21B27,2013-08-02 11:43:00,
2013-08-02 04:48:00,46.1,-99.9,29.85,South,191,1.0,2.0,1,0.00,,,0.00,WeatherCatV1.21B27,2013-08-02 11:48:00,
2013-08-02 04:53:00,45.9,-99.9,29.85,SSE,152,0.0,0.0,1,0.00,,,0.00,WeatherCatV1.21B27,2013-08-02 11:53:00,
2013-08-02 04:58:00,45.7,-99.9,29.85,SSE,152,0.0,0.0,1,0.00,,,0.00,WeatherCatV1.21B27,2013-08-02 11:58:00,
2013-08-02 05:03:00,45.7,-99.9,29.86,South,173,0.0,0.0,1,0.00,,,0.00,WeatherCatV1.21B27,2013-08-02 12:03:00,
2013-08-02 05:08:00,45.7,-99.9,29.85,SSE,155,0.0,4.0,1,0.00,,,0.00,WeatherCatV1.21B27,2013-08-02 12:08:00,
2013-08-02 05:13:00,45.5,-99.9,29.86,SE,146,0.0,0.0,1,0.00,,,0.00,WeatherCatV1.21B27,2013-08-02 12:13:00,
2013-08-02 05:18:00,45.5,-99.9,29.86,SW,230,3.0,6.0,1,0.00,,,0.00,WeatherCatV1.21B27,2013-08-02 12:18:00,
2013-08-02 05:28:00,44.9,-99.9,29.86,SSE,148,0.0,0.0,1,0.00,,,0.00,WeatherCatV1.21B27,2013-08-02 12:28:00,
2013-08-02 05:33:00,44.8,-99.9,29.86,SSE,148,0.0,0.0,1,0.00,,,0.00,WeatherCatV1.21B27,2013-08-02 12:33:00,
2013-08-02 05:38:00,44.9,-99.9,29.86,SSE,148,0.0,0.0,1,0.00,,,0.00,WeatherCatV1.21B27,2013-08-02 12:38:00,
2013-08-02 05:43:00,44.9,-99.9,29.87,SSE,149,0.0,0.0,1,0.00,,,0.00,WeatherCatV1.21B27,2013-08-02 12:43:00,
2013-08-02 05:48:00,45.0,-99.9,29.87,SSE,147,0.0,0.0,1,0.00,,,0.00,WeatherCatV1.21B27,2013-08-02 12:48:00,
2013-08-02 05:53:00,45.1,-99.9,29.87,SE,144,0.0,6.0,1,0.00,,,0.00,WeatherCatV1.21B27,2013-08-02 12:53:00,
2013-08-02 05:58:00,45.2,-99.9,29.87,SSE,155,0.0,0.0,1,0.00,,,0.00,WeatherCatV1.21B27,2013-08-02 12:58:00,
2013-08-02 06:08:00,45.0,-99.9,29.88,South,182,0.0,0.0,1,0.00,,,0.00,WeatherCatV1.21B27,2013-08-02 13:08:00,
2013-08-02 06:13:00,44.7,-99.9,29.88,SSE,151,0.0,0.0,1,0.00,,,0.00,WeatherCatV1.21B27,2013-08-02 13:13:00,
2013-08-02 06:18:00,44.8,-99.9,29.88,SE,144,0.0,0.0,1,0.00,,,0.00,WeatherCatV1.21B27,2013-08-02 13:18:00,
2013-08-02 06:23:00,44.9,-99.9,29.88,ESE,102,0.0,0.0,1,0.00,,,0.00,WeatherCatV1.21B27,2013-08-02 13:23:00,
2013-08-02 06:28:00,45.1,-99.9,29.88,SSW,200,0.0,2.0,1,0.00,,,0.00,WeatherCatV1.21B27,2013-08-02 13:28:00,
2013-08-02 06:33:00,45.2,-99.9,29.88,SE,127,0.0,0.0,1,0.00,,,0.00,WeatherCatV1.21B27,2013-08-02 13:33:00,
2013-08-02 06:38:00,45.3,-99.9,29.88,SE,127,0.0,0.0,1,0.00,,,0.00,WeatherCatV1.21B27,2013-08-02 13:38:00,
2013-08-02 06:43:00,45.3,-99.9,29.88,SE,127,0.0,0.0,1,0.00,,,0.00,WeatherCatV1.21B27,2013-08-02 13:43:00,
2013-08-02 06:48:00,45.6,-99.9,29.88,SE,126,0.0,0.0,1,0.00,,,0.00,WeatherCatV1.21B27,2013-08-02 13:48:00,
2013-08-02 06:53:00,45.7,-99.9,29.89,ESE,113,0.0,0.0,1,0.00,,,0.01,WeatherCatV1.21B27,2013-08-02 13:53:00,
2013-08-02 06:58:00,45.8,-99.9,29.88,ESE,113,0.0,0.0,1,0.00,,,0.01,WeatherCatV1.21B27,2013-08-02 13:58:00,
2013-08-02 07:03:00,45.7,-99.9,29.89,ESE,113,0.0,0.0,1,0.00,,,0.01,WeatherCatV1.21B27,2013-08-02 14:03:00,
2013-08-02 07:08:00,45.8,-99.9,29.89,ESE,113,0.0,0.0,1,0.00,,,0.01,WeatherCatV1.21B27,2013-08-02 14:08:00,
2013-08-02 07:13:00,45.8,-99.9,29.89,ESE,113,0.0,0.0,1,0.00,,,0.01,WeatherCatV1.21B27,2013-08-02 14:13:00,
2013-08-02 07:18:00,45.8,-99.9,29.89,SSE,164,0.0,0.0,1,0.00,,,0.01,WeatherCatV1.21B27,2013-08-02 14:18:00,
2013-08-02 07:23:00,46.1,-99.9,29.89,SSE,164,0.0,0.0,1,0.00,,,0.01,WeatherCatV1.21B27,2013-08-02 14:23:00,
2013-08-02 07:28:00,46.2,-99.9,29.89,SSE,164,0.0,0.0,1,0.00,,,0.01,WeatherCatV1.21B27,2013-08-02 14:28:00,
2013-08-02 07:33:00,46.4,-99.9,29.89,SSE,164,0.0,0.0,1,0.00,,,0.01,WeatherCatV1.21B27,2013-08-02 14:33:00,
2013-08-02 07:38:00,46.6,-99.9,29.89,SSE,167,0.0,0.0,1,0.00,,,0.01,WeatherCatV1.21B27,2013-08-02 14:38:00,
2013-08-02 07:43:00,47.0,-99.9,29.90,SE,140,0.0,0.0,1,0.00,,,0.01,WeatherCatV1.21B27,2013-08-02 14:43:00,
2013-08-02 07:48:00,47.1,-99.9,29.89,SE,138,0.0,0.0,1,0.00,,,0.01,WeatherCatV1.21B27,2013-08-02 14:48:00,
2013-08-02 07:53:00,47.6,-99.9,29.89,SE,138,0.0,0.0,1,0.00,,,0.01,WeatherCatV1.21B27,2013-08-02 14:53:00,
2013-08-02 07:58:00,47.7,-99.9,29.90,SSE,168,0.0,0.0,1,0.00,,,0.01,WeatherCatV1.21B27,2013-08-02 14:58:00,
2013-08-02 08:03:00,47.7,-99.9,29.90,SE,141,1.0,3.0,1,0.00,,,0.01,WeatherCatV1.21B27,2013-08-02 15:03:00,
2013-08-02 08:08:00,48.0,-99.9,29.90,SSE,150,0.0,0.0,1,0.00,,,0.01,WeatherCatV1.21B27,2013-08-02 15:08:00,
2013-08-02 08:13:00,48.2,-99.9,29.90,SSE,158,0.0,0.0,1,0.00,,,0.01,WeatherCatV1.21B27,2013-08-02 15:13:00,
2013-08-02 08:18:00,48.5,-99.9,29.90,SSE,154,0.0,3.0,1,0.00,,,0.01,WeatherCatV1.21B27,2013-08-02 15:18:00,
2013-08-02 08:23:00,49.4,-99.9,29.90,SSE,153,0.0,0.0,1,0.00,,,0.01,WeatherCatV1.21B27,2013-08-02 15:23:00,
2013-08-02 08:28:00,50.7,-99.9,29.90,SSW,200,0.0,0.0,1,0.00,,,0.01,WeatherCatV1.21B27,2013-08-02 15:28:00,
2013-08-02 08:33:00,50.4,-99.9,29.90,ESE,105,0.0,1.0,1,0.00,,,0.01,WeatherCatV1.21B27,2013-08-02 15:33:00,
2013-08-02 08:38:00,51.1,-99.9,29.90,ESE,107,0.0,0.0,1,0.00,,,0.01,WeatherCatV1.21B27,2013-08-02 15:38:00,
2013-08-02 08:43:00,52.1,-99.9,29.90,SSE,148,0.0,2.0,1,0.00,,,0.01,WeatherCatV1.21B27,2013-08-02 15:43:00,
2013-08-02 08:48:00,52.0,-99.9,29.90,SE,133,2.0,4.0,1,0.00,,,0.01,WeatherCatV1.21B27,2013-08-02 15:48:00,
2013-08-02 08:53:00,52.1,-99.9,29.90,SE,125,0.0,4.0,1,0.00,,,0.01,WeatherCatV1.21B27,2013-08-02 15:53:00,
2013-08-02 08:58:00,52.9,-99.9,29.90,ESE,105,0.0,0.0,1,0.00,,,0.01,WeatherCatV1.21B27,2013-08-02 15:58:00,
2013-08-02 09:03:00,53.8,-99.9,29.90,ESE,105,0.0,0.0,1,0.00,,,0.01,WeatherCatV1.21B27,2013-08-02 16:03:00,
2013-08-02 09:08:00,55.2,-99.9,29.90,ESE,113,0.0,0.0,1,0.00,,,0.01,WeatherCatV1.21B27,2013-08-02 16:08:00,
2013-08-02 09:13:00,57.6,-99.9,29.90,SSE,163,0.0,1.0,1,0.00,,,0.01,WeatherCatV1.21B27,2013-08-02 16:13:00,
2013-08-02 09:18:00,60.4,19.2,29.89,SSE,155,0.0,0.0,20,0.00,,,0.01,WeatherCatV1.21B27,2013-08-02 16:18:00,
2013-08-02 09:23:00,61.8,48.2,29.89,SE,142,2.0,4.0,61,0.00,,,0.01,WeatherCatV1.21B27,2013-08-02 16:23:00,
2013-08-02 09:28:00,61.6,52.1,29.88,SSE,165,1.0,4.0,71,0.00,,,0.01,WeatherCatV1.21B27,2013-08-02 16:28:00,
2013-08-02 09:33:00,61.1,52.0,29.89,South,170,3.0,4.0,72,0.00,,,0.01,WeatherCatV1.21B27,2013-08-02 16:33:00,
2013-08-02 09:38:00,61.2,52.5,29.89,SSE,159,2.0,3.0,73,0.00,,,0.01,WeatherCatV1.21B27,2013-08-02 16:38:00,
2013-08-02 09:43:00,61.6,52.9,29.88,SSE,156,2.0,2.0,73,0.00,,,0.01,WeatherCatV1.21B27,2013-08-02 16:43:00,
2013-08-02 09:48:00,62.0,53.6,29.88,SSE,158,2.0,4.0,74,0.00,,,0.01,WeatherCatV1.21B27,2013-08-02 16:48:00,
2013-08-02 09:53:00,63.0,54.6,29.89,SE,144,2.0,4.0,74,0.00,,,0.01,WeatherCatV1.21B27,2013-08-02 16:53:00,
2013-08-02 09:58:00,63.3,54.9,29.88,South,176,1.0,3.0,74,0.00,,,0.01,WeatherCatV1.21B27,2013-08-02 16:58:00,
2013-08-02 10:03:00,63.6,54.4,29.88,SSE,161,0.0,5.0,72,0.00,,,0.01,WeatherCatV1.21B27,2013-08-02 17:03:00,
2013-08-02 10:08:00,64.0,54.8,29.89,SSE,167,2.0,4.0,72,0.00,,,0.01,WeatherCatV1.21B27,2013-08-02 17:08:00,
2013-08-02 10:13:00,64.7,55.8,29.88,SSE,154,0.0,2.0,73,0.00,,,0.01,WeatherCatV1.21B27,2013-08-02 17:13:00,
2013-08-02 10:18:00,65.2,55.5,29.88,SSE,166,0.0,4.0,71,0.00,,,0.01,WeatherCatV1.21B27,2013-08-02 17:18:00,
2013-08-02 10:23:00,65.7,55.6,29.88,SSE,150,1.0,2.0,70,0.00,,,0.01,WeatherCatV1.21B27,2013-08-02 17:23:00,
2013-08-02 10:33:00,67.6,56.7,29.88,South,177,1.0,4.0,68,0.00,,,0.01,WeatherCatV1.21B27,2013-08-02 17:33:00,
2013-08-02 10:38:00,68.1,56.3,29.88,South,190,1.0,2.0,66,0.00,,,0.01,WeatherCatV1.21B27,2013-08-02 17:38:00,
2013-08-02 10:43:00,68.7,56.5,29.88,South,172,1.0,3.0,65,0.00,,,0.01,WeatherCatV1.21B27,2013-08-02 17:43:00,
2013-08-02 10:48:00,69.4,56.2,29.88,South,175,0.0,3.0,63,0.00,,,0.01,WeatherCatV1.21B27,2013-08-02 17:48:00,
2013-08-02 10:53:00,70.0,55.5,29.88,SSE,152,2.0,5.0,60,0.00,,,0.01,WeatherCatV1.21B27,2013-08-02 17:53:00,
2013-08-02 10:58:00,70.9,56.3,29.88,SE,133,1.0,4.0,60,0.00,,,0.01,WeatherCatV1.21B27,2013-08-02 17:58:00,
2013-08-02 11:03:00,71.5,55.9,29.87,South,183,3.0,4.0,58,0.00,,,0.01,WeatherCatV1.21B27,2013-08-02 18:03:00,
2013-08-02 11:08:00,71.8,56.2,29.87,SE,145,1.0,3.0,58,0.00,,,0.01,WeatherCatV1.21B27,2013-08-02 18:08:00,
2013-08-02 11:13:00,72.3,55.7,29.87,SSW,192,1.0,3.0,56,0.00,,,0.01,WeatherCatV1.21B27,2013-08-02 18:13:00,
2013-08-02 11:18:00,72.6,56.5,29.87,SSE,167,1.0,5.0,57,0.00,,,0.01,WeatherCatV1.21B27,2013-08-02 18:18:00,
2013-08-02 11:23:00,73.1,55.5,29.87,South,185,5.0,5.0,54,0.00,,,0.01,WeatherCatV1.21B27,2013-08-02 18:23:00,
2013-08-02 11:28:00,73.5,55.8,29.87,SE,126,1.0,5.0,54,0.00,,,0.01,WeatherCatV1.21B27,2013-08-02 18:28:00,
2013-08-02 11:33:00,74.4,56.7,29.87,SSE,168,0.0,4.0,54,0.00,,,0.01,WeatherCatV1.21B27,2013-08-02 18:33:00,
2013-08-02 11:38:00,74.5,56.2,29.86,South,175,4.0,6.0,53,0.00,,,0.01,WeatherCatV1.21B27,2013-08-02 18:38:00,
2013-08-02 11:43:00,75.1,56.8,29.86,SSE,156,1.0,2.0,53,0.00,,,0.01,WeatherCatV1.21B27,2013-08-02 18:43:00,
2013-08-02 11:48:00,75.7,56.3,29.86,South,184,1.0,4.0,51,0.00,,,0.01,WeatherCatV1.21B27,2013-08-02 18:48:00,
2013-08-02 11:53:00,76.2,56.2,29.86,South,171,1.0,2.0,50,0.00,,,0.01,WeatherCatV1.21B27,2013-08-02 18:53:00,
2013-08-02 11:58:00,76.8,55.6,29.86,SE,135,0.0,4.0,48,0.00,,,0.01,WeatherCatV1.21B27,2013-08-02 18:58:00,
2013-08-02 12:03:00,77.9,56.6,29.86,ESE,105,2.0,2.0,48,0.00,,,0.01,WeatherCatV1.21B27,2013-08-02 19:03:00,
2013-08-02 12:08:00,78.4,56.5,29.86,SSE,156,4.0,5.0,47,0.00,,,0.01,WeatherCatV1.21B27,2013-08-02 19:08:00,
2013-08-02 12:13:00,77.5,54.5,29.86,East,88,2.0,6.0,45,0.00,,,0.01,WeatherCatV1.21B27,2013-08-02 19:13:00,
2013-08-02 12:18:00,77.0,54.6,29.86,ESE,111,3.0,11.0,46,0.00,,,0.01,WeatherCatV1.21B27,2013-08-02 19:18:00,
2013-08-02 12:23:00,75.9,55.3,29.86,NE,50,9.0,11.0,49,0.00,,,0.01,WeatherCatV1.21B27,2013-08-02 19:23:00,
2013-08-02 12:28:00,75.9,55.9,29.86,NE,49,7.0,11.0,50,0.00,,,0.01,WeatherCatV1.21B27,2013-08-02 19:28:00,
2013-08-02 12:33:00,74.9,56.1,29.87,East,85,5.0,8.0,52,0.00,,,0.01,WeatherCatV1.21B27,2013-08-02 19:33:00,
2013-08-02 12:38:00,75.0,57.2,29.86,East,97,2.0,5.0,54,0.00,,,0.01,WeatherCatV1.21B27,2013-08-02 19:38:00,
2013-08-02 12:48:00,74.4,57.2,29.86,East,82,5.0,9.0,55,0.00,,,0.01,WeatherCatV1.21B27,2013-08-02 19:48:00,
2013-08-02 12:53:00,74.7,57.9,29.86,NNE,24,4.0,4.0,56,0.00,,,0.01,WeatherCatV1.21B27,2013-08-02 19:53:00,
2013-08-02 12:58:00,74.6,57.3,29.86,ESE,108,3.0,9.0,55,0.00,,,0.01,WeatherCatV1.21B27,2013-08-02 19:58:00,
2013-08-02 13:03:00,75.4,57.6,29.86,ENE,74,5.0,6.0,54,0.00,,,0.01,WeatherCatV1.21B27,2013-08-02 20:03:00,
2013-08-02 13:08:00,75.5,57.7,29.86,South,182,1.0,2.0,54,0.00,,,0.01,WeatherCatV1.21B27,2013-08-02 20:08:00,
2013-08-02 13:13:00,75.1,57.3,29.86,South,171,2.0,9.0,54,0.00,,,0.01,WeatherCatV1.21B27,2013-08-02 20:13:00,
2013-08-02 13:18:00,74.9,57.6,29.86,ESE,115,5.0,9.0,55,0.00,,,0.01,WeatherCatV1.21B27,2013-08-02 20:18:00,
2013-08-02 13:23:00,75.4,58.1,29.86,NE,56,4.0,4.0,55,0.00,,,0.01,WeatherCatV1.21B27,2013-08-02 20:23:00,
2013-08-02 13:28:00,75.2,57.4,29.86,ESE,121,4.0,7.0,54,0.00,,,0.01,WeatherCatV1.21B27,2013-08-02 20:28:00,
2013-08-02 13:33:00,74.5,57.8,29.86,East,82,2.0,5.0,56,0.00,,,0.01,WeatherCatV1.21B27,2013-08-02 20:33:00,
2013-08-02 13:38:00,75.3,57.5,29.86,ENE,69,3.0,7.0,54,0.00,,,0.01,WeatherCatV1.21B27,2013-08-02 20:38:00,
2013-08-02 13:43:00,75.0,57.2,29.86,ESE,102,5.0,9.0,54,0.00,,,0.01,WeatherCatV1.21B27,2013-08-02 20:43:00,
2013-08-02 13:48:00,75.3,57.5,29.86,NE,55,3.0,4.0,54,0.00,,,0.01,WeatherCatV1.21B27,2013-08-02 20:48:00,
2013-08-02 13:53:00,75.0,57.7,29.85,South,180,2.0,11.0,55,0.00,,,0.01,WeatherCatV1.21B27,2013-08-02 20:53:00,
2013-08-02 13:58:00,74.9,57.6,29.85,NE,45,2.0,6.0,55,0.00,,,0.01,WeatherCatV1.21B27,2013-08-02 20:58:00,
2013-08-02 14:03:00,74.5,56.8,29.85,ESE,119,4.0,10.0,54,0.00,,,0.01,WeatherCatV1.21B27,2013-08-02 21:03:00,
2013-08-02 14:08:00,73.8,57.1,29.86,ENE,72,9.0,9.0,56,0.00,,,0.01,WeatherCatV1.21B27,2013-08-02 21:08:00,
2013-08-02 14:13:00,74.5,57.2,29.85,NNE,32,6.0,8.0,55,0.00,,,0.01,WeatherCatV1.21B27,2013-08-02 21:13:00,
2013-08-02 14:18:00,73.8,56.6,29.86,South,188,1.0,3.0,55,0.00,,,0.01,WeatherCatV1.21B27,2013-08-02 21:18:00,
2013-08-02 14:23:00,73.7,56.5,29.86,SSE,165,1.0,6.0,55,0.00,,,0.01,WeatherCatV1.21B27,2013-08-02 21:23:00,
2013-08-02 14:28:00,73.8,57.1,29.85,South,186,1.0,4.0,56,0.00,,,0.01,WeatherCatV1.21B27,2013-08-02 21:28:00,
2013-08-02 14:33:00,73.4,56.2,29.85,SE,127,3.0,7.0,55,0.00,,,0.01,WeatherCatV1.21B27,2013-08-02 21:33:00,
2013-08-02 14:38:00,72.8,57.2,29.85,SSE,163,4.0,4.0,58,0.00,,,0.01,WeatherCatV1.21B27,2013-08-02 21:38:00,
2013-08-02 14:43:00,73.4,56.2,29.85,SE,130,1.0,6.0,55,0.00,,,0.01,WeatherCatV1.21B27,2013-08-02 21:43:00,
2013-08-02 14:48:00,73.1,56.5,29.85,SSE,150,0.0,4.0,56,0.00,,,0.01,WeatherCatV1.21B27,2013-08-02 21:48:00,
2013-08-02 14:53:00,72.8,56.2,29.85,SSE,154,0.0,7.0,56,0.00,,,0.01,WeatherCatV1.21B27,2013-08-02 21:53:00,
2013-08-02 14:58:00,72.5,56.4,29.85,SSE,148,4.0,5.0,57,0.00,,,0.01,WeatherCatV1.21B27,2013-08-02 21:58:00,
2013-08-02 15:03:00,72.2,56.1,29.85,SE,146,0.0,6.0,57,0.00,,,0.01,WeatherCatV1.21B27,2013-08-02 22:03:00,
2013-08-02 15:08:00,72.4,56.3,29.85,South,182,1.0,7.0,57,0.00,,,0.01,WeatherCatV1.21B27,2013-08-02 22:08:00,
2013-08-02 15:13:00,72.0,56.4,29.85,SE,143,1.0,9.0,58,0.00,,,0.01,WeatherCatV1.21B27,2013-08-02 22:13:00,
2013-08-02 15:18:00,71.5,55.9,29.85,South,175,2.0,7.0,58,0.00,,,0.01,WeatherCatV1.21B27,2013-08-02 22:18:00,
2013-08-02 15:23:00,71.8,55.7,29.85,SE,132,1.0,5.0,57,0.00,,,0.01,WeatherCatV1.21B27,2013-08-02 22:23:00,
2013-08-02 15:28:00,71.6,56.0,29.84,SE,141,1.0,3.0,58,0.00,,,0.01,WeatherCatV1.21B27,2013-08-02 22:28:00,
2013-08-02 15:33:00,71.7,56.1,29.84,South,178,4.0,4.0,58,0.00,,,0.01,WeatherCatV1.21B27,2013-08-02 22:33:00,
2013-08-02 15:38:00,70.7,55.7,29.84,SSW,197,4.0,4.0,59,0.00,,,0.01,WeatherCatV1.21B27,2013-08-02 22:38:00,
2013-08-02 15:43:00,70.7,55.2,29.84,SSE,161,1.0,5.0,58,0.00,,,0.01,WeatherCatV1.21B27,2013-08-02 22:43:00,
2013-08-02 15:48:00,70.1,55.1,29.84,SSE,165,1.0,5.0,59,0.00,,,0.01,WeatherCatV1.21B27,2013-08-02 22:48:00,
2013-08-02 15:53:00,69.2,55.2,29.84,SE,146,2.0,3.0,61,0.00,,,0.01,WeatherCatV1.21B27,2013-08-02 22:53:00,
2013-08-02 15:58:00,68.5,54.5,29.84,SSE,159,3.0,5.0,61,0.00,,,0.01,WeatherCatV1.21B27,2013-08-02 22:58:00,
2013-08-02 16:03:00,68.3,54.8,29.84,SSE,159,1.0,7.0,62,0.00,,,0.01,WeatherCatV1.21B27,2013-08-02 23:03:00,
2013-08-02 16:08:00,68.6,54.6,29.84,South,190,6.0,6.0,61,0.00,,,0.01,WeatherCatV1.21B27,2013-08-02 23:08:00,
2013-08-02 16:13:00,66.9,54.3,29.85,South,183,3.0,7.0,64,0.00,,,0.01,WeatherCatV1.21B27,2013-08-02 23:13:00,
2013-08-02 16:18:00,67.0,54.4,29.84,SSE,161,1.0,9.0,64,0.00,,,0.01,WeatherCatV1.21B27,2013-08-02 23:18:00,
2013-08-02 16:23:00,67.1,54.5,29.84,SSE,164,2.0,4.0,64,0.00,,,0.01,WeatherCatV1.21B27,2013-08-02 23:23:00,
2013-08-02 16:28:00,67.4,54.8,29.84,SE,134,1.0,4.0,64,0.00,,,0.01,WeatherCatV1.21B27,2013-08-02 23:28:00,
2013-08-02 16:33:00,66.9,54.3,29.84,South,184,3.0,5.0,64,0.00,,,0.01,WeatherCatV1.21B27,2013-08-02 23:33:00,
2013-08-02 16:38:00,66.9,54.7,29.84,South,176,2.0,4.0,65,0.00,,,0.01,WeatherCatV1.21B27,2013-08-02 23:38:00,
2013-08-02 16:43:00,66.8,54.7,29.84,SE,144,0.0,5.0,65,0.00,,,0.01,WeatherCatV1.21B27,2013-08-02 23:43:00,
2013-08-02 16:48:00,66.7,54.1,29.84,South,188,6.0,7.0,64,0.00,,,0.01,WeatherCatV1.21B27,2013-08-02 23:48:00,
2013-08-02 16:53:00,65.5,53.8,29.84,South,182,2.0,7.0,66,0.00,,,0.01,WeatherCatV1.21B27,2013-08-02 23:53:00,
2013-08-02 16:58:00,65.7,54.4,29.84,East,89,3.0,3.0,67,0.00,,,0.01,WeatherCatV1.21B27,2013-08-02 23:58:00,
2013-08-02 17:03:00,66.0,53.9,29.84,ESE,119,1.0,5.0,65,0.00,,,0.01,WeatherCatV1.21B27,2013-08-03 00:03:00,
2013-08-02 17:08:00,65.8,54.1,29.84,WSW,250,3.0,6.0,66,0.00,,,0.01,WeatherCatV1.21B27,2013-08-03 00:08:00,
2013-08-02 17:13:00,65.9,54.2,29.84,SW,217,2.0,3.0,66,0.00,,,0.01,WeatherCatV1.21B27,2013-08-03 00:13:00,
2013-08-02 17:18:00,65.8,54.1,29.84,South,182,3.0,3.0,66,0.00,,,0.01,WeatherCatV1.21B27,2013-08-03 00:18:00,
2013-08-02 17:23:00,65.5,53.8,29.84,South,182,4.0,6.0,66,0.00,,,0.01,WeatherCatV1.21B27,2013-08-03 00:23:00,
2013-08-02 17:28:00,65.4,54.2,29.84,SSW,194,2.0,2.0,67,0.00,,,0.01,WeatherCatV1.21B27,2013-08-03 00:28:00,
2013-08-02 17:33:00,65.0,53.4,29.84,SSE,165,1.0,6.0,66,0.00,,,0.01,WeatherCatV1.21B27,2013-08-03 00:33:00,
2013-08-02 17:38:00,64.6,53.8,29.84,SSE,148,0.0,2.0,68,0.00,,,0.01,WeatherCatV1.21B27,2013-08-03 00:38:00,
2013-08-02 17:43:00,64.8,54.0,29.84,SSE,161,0.0,0.0,68,0.00,,,0.01,WeatherCatV1.21B27,2013-08-03 00:43:00,
2013-08-02 17:48:00,65.0,53.8,29.84,SE,140,3.0,4.0,67,0.00,,,0.01,WeatherCatV1.21B27,2013-08-03 00:48:00,
2013-08-02 17:53:00,64.9,54.1,29.84,South,178,2.0,3.0,68,0.00,,,0.01,WeatherCatV1.21B27,2013-08-03 00:53:00,
2013-08-02 17:58:00,64.5,53.7,29.84,SSE,155,0.0,4.0,68,0.00,,,0.01,WeatherCatV1.21B27,2013-08-03 00:58:00,
2013-08-02 18:03:00,63.6,53.2,29.84,South,178,3.0,5.0,69,0.00,,,0.01,WeatherCatV1.21B27,2013-08-03 01:03:00,
2013-08-02 18:08:00,63.0,53.1,29.84,SE,146,1.0,3.0,70,0.00,,,0.01,WeatherCatV1.21B27,2013-08-03 01:08:00,
2013-08-02 18:13:00,62.6,53.1,29.84,South,170,3.0,3.0,71,0.00,,,0.01,WeatherCatV1.21B27,2013-08-03 01:13:00,
2013-08-02 18:18:00,62.4,52.9,29.84,South,180,0.0,2.0,71,0.00,,,0.01,WeatherCatV1.21B27,2013-08-03 01:18:00,
2013-08-02 18:23:00,62.4,53.2,29.84,SSE,159,1.0,3.0,72,0.00,,,0.01,WeatherCatV1.21B27,2013-08-03 01:23:00,
2013-08-02 18:28:00,62.4,53.2,29.84,SSE,156,0.0,2.0,72,0.00,,,0.01,WeatherCatV1.21B27,2013-08-03 01:28:00,
2013-08-02 18:33:00,62.5,53.3,29.84,SSE,151,0.0,1.0,72,0.00,,,0.01,WeatherCatV1.21B27,2013-08-03 01:33:00,
2013-08-02 18:38:00,62.6,53.1,29.84,SSE,149,1.0,2.0,71,0.00,,,0.01,WeatherCatV1.21B27,2013-08-03 01:38:00,
2013-08-02 18:43:00,62.9,53.3,29.83,SE,146,0.0,2.0,71,0.00,,,0.01,WeatherCatV1.21B27,2013-08-03 01:43:00,
2013-08-02 18:48:00,62.7,53.2,29.83,South,173,0.0,1.0,71,0.00,,,0.01,WeatherCatV1.21B27,2013-08-03 01:48:00,
2013-08-02 18:58:00,60.7,52.0,29.84,SSE,157,0.0,1.0,73,0.00,,,0.01,WeatherCatV1.21B27,2013-08-03 01:58:00,
2013-08-02 19:03:00,60.2,51.9,29.83,SSE,159,1.0,3.0,74,0.00,,,0.01,WeatherCatV1.21B27,2013-08-03 02:03:00,
2013-08-02 19:08:00,59.9,51.6,29.83,SSE,167,1.0,5.0,74,0.00,,,0.01,WeatherCatV1.21B27,2013-08-03 02:08:00,
2013-08-02 19:13:00,59.2,50.9,29.84,SE,141,2.0,2.0,74,0.00,,,0.01,WeatherCatV1.21B27,2013-08-03 02:13:00,
2013-08-02 19:18:00,58.2,50.0,29.84,SE,131,3.0,3.0,74,0.00,,,0.01,WeatherCatV1.21B27,2013-08-03 02:18:00,
2013-08-02 19:23:00,56.9,48.0,29.84,ESE,111,3.0,4.0,72,0.00,,,0.01,WeatherCatV1.21B27,2013-08-03 02:23:00,
2013-08-02 19:28:00,56.3,46.3,29.84,ESE,117,1.0,1.0,69,0.00,,,0.01,WeatherCatV1.21B27,2013-08-03 02:28:00,
2013-08-02 19:33:00,56.1,45.3,29.84,SSE,156,0.0,2.0,67,0.00,,,0.01,WeatherCatV1.21B27,2013-08-03 02:33:00,
2013-08-02 19:43:00,55.4,42.6,29.84,SE,143,0.0,1.0,62,0.00,,,0.01,WeatherCatV1.21B27,2013-08-03 02:43:00,
2013-08-02 19:48:00,55.1,41.5,29.84,SSE,159,0.0,5.0,60,0.00,,,0.01,WeatherCatV1.21B27,2013-08-03 02:48:00,
2013-08-02 19:53:00,54.6,40.1,29.84,SSE,150,0.0,1.0,58,0.00,,,0.01,WeatherCatV1.21B27,2013-08-03 02:53:00,
2013-08-02 19:58:00,54.2,37.9,29.84,SE,146,0.0,3.0,54,0.00,,,0.01,WeatherCatV1.21B27,2013-08-03 02:58:00,
2013-08-02 20:03:00,53.8,34.6,29.84,SSE,161,0.0,0.0,48,0.00,,,0.01,WeatherCatV1.21B27,2013-08-03 03:03:00,
2013-08-02 20:08:00,53.6,30.5,29.84,SSE,161,6.0,6.0,41,0.00,,,0.01,WeatherCatV1.21B27,2013-08-03 03:08:00,
2013-08-02 20:13:00,53.4,27.8,29.84,SE,126,1.0,5.0,37,0.00,,,0.01,WeatherCatV1.21B27,2013-08-03 03:13:00,
2013-08-02 20:18:00,53.4,24.3,29.84,SE,130,0.0,2.0,32,0.00,,,0.01,WeatherCatV1.21B27,2013-08-03 03:18:00,
2013-08-02 20:23:00,53.2,27.0,29.84,SW,226,2.0,2.0,36,0.00,,,0.01,WeatherCatV1.21B27,2013-08-03 03:23:00,
2013-08-02 20:28:00,52.9,23.9,29.84,SSE,158,1.0,2.0,32,0.00,,,0.01,WeatherCatV1.21B27,2013-08-03 03:28:00,
2013-08-02 20:33:00,52.6,17.8,29.84,ESE,112,0.0,1.0,25,0.00,,,0.01,WeatherCatV1.21B27,2013-08-03 03:33:00,
2013-08-02 20:38:00,52.4,12.5,29.84,SE,137,0.0,0.0,20,0.00,,,0.01,WeatherCatV1.21B27,2013-08-03 03:38:00,
2013-08-02 20:43:00,52.0,9.8,29.85,SSE,155,0.0,0.0,18,0.00,,,0.01,WeatherCatV1.21B27,2013-08-03 03:43:00,
2013-08-02 20:53:00,51.5,-99.9,29.85,ESE,107,3.0,5.0,1,0.00,,,0.01,WeatherCatV1.21B27,2013-08-03 03:53:00,
2013-08-02 20:58:00,51.3,-99.9,29.85,ESE,111,0.0,2.0,1,0.00,,,0.01,WeatherCatV1.21B27,2013-08-03 03:58:00,
2013-08-02 21:03:00,51.0,-99.9,29.84,SE,133,0.0,0.0,1,0.00,,,0.01,WeatherCatV1.21B27,2013-08-03 04:03:00,
2013-08-02 21:08:00,50.8,-99.9,29.84,SSW,193,0.0,2.0,1,0.00,,,0.01,WeatherCatV1.21B27,2013-08-03 04:08:00,
2013-08-02 21:13:00,50.5,-99.9,29.84,ESE,115,0.0,2.0,1,0.00,,,0.01,WeatherCatV1.21B27,2013-08-03 04:13:00,
2013-08-02 21:18:00,50.2,-99.9,29.84,ESE,123,0.0,1.0,1,0.00,,,0.01,WeatherCatV1.21B27,2013-08-03 04:18:00,
2013-08-02 21:23:00,50.0,-99.9,29.84,SE,143,0.0,1.0,1,0.00,,,0.01,WeatherCatV1.21B27,2013-08-03 04:23:00,
2013-08-02 21:28:00,49.7,-99.9,29.84,SE,137,1.0,4.0,1,0.00,,,0.01,WeatherCatV1.21B27,2013-08-03 04:28:00,
2013-08-02 21:33:00,49.5,-99.9,29.85,SE,138,0.0,0.0,1,0.00,,,0.01,WeatherCatV1.21B27,2013-08-03 04:33:00,
2013-08-02 21:38:00,49.3,-99.9,29.85,SE,142,3.0,6.0,1,0.00,,,0.01,WeatherCatV1.21B27,2013-08-03 04:38:00,
2013-08-02 21:43:00,49.2,-99.9,29.84,SE,125,1.0,1.0,1,0.00,,,0.01,WeatherCatV1.21B27,2013-08-03 04:43:00,
2013-08-02 21:48:00,49.0,-99.9,29.84,SSE,167,1.0,3.0,1,0.00,,,0.01,WeatherCatV1.21B27,2013-08-03 04:48:00,
2013-08-02 21:53:00,48.8,-99.9,29.84,ESE,120,0.0,0.0,1,0.00,,,0.01,WeatherCatV1.21B27,2013-08-03 04:53:00,
2013-08-02 21:58:00,48.6,-99.9,29.84,SE,138,0.0,0.0,1,0.00,,,0.01,WeatherCatV1.21B27,2013-08-03 04:58:00,
2013-08-02 22:08:00,48.4,-99.9,29.84,SSE,159,0.0,0.0,1,0.00,,,0.01,WeatherCatV1.21B27,2013-08-03 05:08:00,
2013-08-02 22:13:00,48.3,-99.9,29.84,ESE,109,0.0,0.0,1,0.00,,,0.01,WeatherCatV1.21B27,2013-08-03 05:13:00,
2013-08-02 22:18:00,48.2,-99.9,29.84,ESE,111,0.0,2.0,1,0.00,,,0.01,WeatherCatV1.21B27,2013-08-03 05:18:00,
2013-08-02 22:23:00,48.0,-99.9,29.84,ESE,118,1.0,1.0,1,0.00,,,0.01,WeatherCatV1.21B27,2013-08-03 05:23:00,
2013-08-02 22:28:00,47.9,-99.9,29.84,ESE,118,0.0,0.0,1,0.00,,,0.01,WeatherCatV1.21B27,2013-08-03 05:28:00,
2013-08-02 22:33:00,47.7,-99.9,29.84,ESE,118,0.0,0.0,1,0.00,,,0.01,WeatherCatV1.21B27,2013-08-03 05:33:00,
2013-08-02 22:38:00,47.5,-99.9,29.83,ESE,118,0.0,0.0,1,0.00,,,0.01,WeatherCatV1.21B27,2013-08-03 05:38:00,
2013-08-02 22:43:00,47.6,-99.9,29.83,ESE,119,1.0,5.0,1,0.00,,,0.01,WeatherCatV1.21B27,2013-08-03 05:43:00,
2013-08-02 22:48:00,47.6,-99.9,29.83,ESE,118,0.0,0.0,1,0.00,,,0.01,WeatherCatV1.21B27,2013-08-03 05:48:00,
2013-08-02 22:53:00,47.5,-99.9,29.83,ESE,109,0.0,0.0,1,0.00,,,0.01,WeatherCatV1.21B27,2013-08-03 05:53:00,
2013-08-02 22:58:00,47.5,-99.9,29.83,ESE,115,0.0,0.0,1,0.00,,,0.01,WeatherCatV1.21B27,2013-08-03 05:58:00,
2013-08-02 23:03:00,47.4,-99.9,29.82,South,188,0.0,3.0,1,0.00,,,0.01,WeatherCatV1.21B27,2013-08-03 06:03:00,
2013-08-02 23:08:00,47.4,-99.9,29.83,SSE,158,0.0,1.0,1,0.00,,,0.01,WeatherCatV1.21B27,2013-08-03 06:08:00,
2013-08-02 23:13:00,47.4,-99.9,29.83,ESE,118,0.0,2.0,1,0.00,,,0.01,WeatherCatV1.21B27,2013-08-03 06:13:00,
2013-08-02 23:18:00,47.4,-99.9,29.83,ESE,119,0.0,2.0,1,0.00,,,0.01,WeatherCatV1.21B27,2013-08-03 06:18:00,
2013-08-02 23:23:00,47.3,-99.9,29.83,ESE,119,0.0,0.0,1,0.00,,,0.01,WeatherCatV1.21B27,2013-08-03 06:23:00,
2013-08-02 23:28:00,47.3,-99.9,29.83,ESE,119,0.0,0.0,1,0.00,,,0.01,WeatherCatV1.21B27,2013-08-03 06:28:00,
2013-08-02 23:33:00,47.3,-99.9,29.83,ESE,119,0.0,0.0,1,0.00,,,0.01,WeatherCatV1.21B27,2013-08-03 06:33:00,
2013-08-02 23:38:00,47.2,-99.9,29.83,ESE,120,0.0,0.0,1,0.00,,,0.01,WeatherCatV1.21B27,2013-08-03 06:38:00,
2013-08-02 23:43:00,47.2,-99.9,29.83,ESE,120,0.0,0.0,1,0.00,,,0.01,WeatherCatV1.21B27,2013-08-03 06:43:00,
2013-08-02 23:48:00,47.2,-99.9,29.83,SE,136,0.0,0.0,1,0.00,,,0.01,WeatherCatV1.21B27,2013-08-03 06:48:00,
2013-08-02 23:53:00,47.2,-99.9,29.83,SE,136,0.0,0.0,1,0.00,,,0.01,WeatherCatV1.21B27,2013-08-03 06:53:00,
2013-08-02 23:58:00,47.2,-99.9,29.83,SE,136,0.0,0.0,1,0.00,,,0.01,WeatherCatV1.21B27,2013-08-03 06:58:00,